Location: *
(31.2983°S, 151.4094°E)
Time: 14:13:24
(UTC+00:00)

Cosmos 2297 - Pass Details

Date: 29 November 2019
Orbit: 835 x 860 km, 71.0° (Epoch: 12 December)

Event Time Altitude Azimuth Distance (km) Brightness Sun altitude
Exits shadow 12:39:40 30° 153° (SSE) 1,458 5.2 -35.1°
Drops below altitude 10° 12:42:28 10° 157° (SSE) 2,470 6.6 -35.3°
Sets 12:44:56 0° 158° (SSE) 3,411 7.5 -35.4°
